DK0KTL-4 Weather Reports


time (UTC)temp
C
wind
direction
speed
KPH
gust
KPH
rain 1hr
cm
rain 24hr
cm
rain mn
cm
humidity
%
barometer
mb
20260504034401 12 165 0.0 3.2 0.00 0.00 0.00 74 1011.7
20260504032900 12 209 0.0 3.2 0.00 0.00 0.00 74 1011.8
20260504032359 12 101 0.0 0.0 0.00 0.00 0.00 74 1011.8
20260504031859 12 101 0.0 1.6 0.00 0.00 0.00 74 1011.9
20260504031359 12 102 0.0 1.6 0.00 0.00 0.00 74 1011.9
20260504030859 12 104 0.0 1.6 0.00 0.00 0.00 75 1012.0
20260504030358 12 159 1.6 3.2 0.00 0.00 0.00 74 1012.0
20260504025858 12 69 0.0 1.6 0.00 0.00 0.00 74 1012.1
20260504025358 12 59 0.0 1.6 0.00 0.00 0.00 74 1012.2
20260504024857 12 59 0.0 3.2 0.00 0.00 0.00 74 1012.1
20260504024357 12 111 0.0 0.0 0.00 0.00 0.00 74 1012.2
20260504023357 12 111 0.0 3.2 0.00 0.00 0.00 73 1012.1
20260504022856 12 69 0.0 1.6 0.00 0.00 0.00 72 1012.2
20260504021856 13 92 0.0 3.2 0.00 0.00 0.00 73 1012.3
20260504021356 13 104 0.0 3.2 0.00 0.00 0.00 72 1012.3
20260504015855 13 123 0.0 3.2 0.00 0.00 0.00 72 1012.3
20260504014354 13 55 1.6 4.8 0.00 0.00 0.00 72 1012.2
20260504013853 13 54 1.6 3.2 0.00 0.00 0.00 71 1012.3
20260504013353 13 84 1.6 4.8 0.00 0.00 0.00 72 1012.2
20260504012853 13 70 1.6 3.2 0.00 0.00 0.00 71 1012.2
20260504011852 13 179 3.2 4.8 0.00 0.00 0.00 72 1012.2
20260504011352 13 272 3.2 9.7 0.00 0.00 0.00 73 1012.1
20260504010852 13 200 1.6 9.7 0.00 0.00 0.00 72 1011.6
20260504010351 13 282 0.0 1.6 0.00 0.00 0.00 71 1011.1
20260504005851 13 350 0.0 1.6 0.00 0.00 0.00 71 1011.1
20260504005351 13 53 0.0 1.6 0.00 0.00 0.00 71 1011.5
20260504004350 13 48 1.6 3.2 0.00 0.00 0.00 70 1011.8
20260504002849 13 76 0.0 1.6 0.00 0.00 0.00 71 1011.8
20260504001849 13 83 0.0 3.2 0.00 0.00 0.00 72 1011.9
20260504001349 13 73 0.0 0.0 0.00 0.00 0.00 72 1011.8
20260504000848 13 73 0.0 0.0 0.00 0.00 0.00 72 1012.0
20260504000348 13 73 0.0 1.6 0.00 0.00 0.00 71 1011.8
20260503235848 13 73 0.0 0.0 0.00 0.00 0.00 71 1011.7
20260503235347 13 73 0.0 0.0 0.00 0.00 0.00 70 1011.8
20260503234347 14 73 0.0 0.0 0.00 0.00 0.00 69 1011.7
20260503233846 14 73 0.0 0.0 0.00 0.00 0.00 68 1011.7
20260503233346 14 73 0.0 1.6 0.00 0.00 0.00 68 1011.8
20260503232846 14 73 0.0 1.6 0.00 0.00 0.00 68 1011.7
20260503232346 14 73 0.0 1.6 0.00 0.00 0.00 68 1011.8
20260503231345 14 74 0.0 1.6 0.00 0.00 0.00 68 1011.8
20260503224844 14 74 0.0 1.6 0.00 0.00 0.00 68 1011.6
20260503224343 14 74 0.0 0.0 0.00 0.00 0.00 69 1011.6
20260503223843 14 74 0.0 0.0 0.00 0.00 0.00 68 1011.5
20260503222843 14 65 0.0 0.0 0.00 0.00 0.00 68 1011.4
20260503222342 15 65 0.0 0.0 0.00 0.00 0.00 68 1011.5
20260503221342 15 65 0.0 0.0 0.00 0.00 0.00 67 1011.5
20260503215841 15 65 0.0 0.0 0.00 0.00 0.00 66 1011.3
20260503215341 15 65 0.0 1.6 0.00 0.00 0.00 65 1011.1
20260503213840 16 65 0.0 1.6 0.00 0.00 0.00 63 1011.1
20260503212839 16 65 0.0 1.6 0.00 0.00 0.00 61 1011.1
20260503212339 16 65 0.0 1.6 0.00 0.00 0.00 61 1011.0
20260503211338 16 65 1.6 3.2 0.00 0.00 0.00 59 1011.0
20260503210838 16 55 1.6 3.2 0.00 0.00 0.00 60 1011.0
20260503205837 16 58 1.6 3.2 0.00 0.00 0.00 59 1011.0
20260503205337 17 64 1.6 3.2 0.00 0.00 0.00 59 1010.9
20260503203836 17 74 1.6 3.2 0.00 0.00 0.00 58 1010.7
20260503202836 17 67 0.0 3.2 0.00 0.00 0.00 57 1010.6
20260503201835 18 64 0.0 3.2 0.00 0.00 0.00 56 1010.5
20260503201335 18 40 0.0 3.2 0.00 0.00 0.00 53 1010.4
20260503200834 18 47 0.0 3.2 0.00 0.00 0.00 52 1010.5
20260503200334 18 12 0.0 3.2 0.00 0.00 0.00 52 1010.5
20260503195834 18 355 0.0 1.6 0.00 0.00 0.00 51 1010.5
20260503195334 18 311 0.0 0.0 0.00 0.00 0.00 50 1010.4
20260503194333 19 311 0.0 3.2 0.00 0.00 0.00 49 1010.3
20260503193833 19 350 0.0 0.0 0.00 0.00 0.00 48 1010.3
20260503192832 20 350 0.0 1.6 0.00 0.00 0.00 47 1010.3
20260503191331 20 277 0.0 3.2 0.00 0.00 0.00 46 1010.3
20260503185830 20 248 0.0 3.2 0.00 0.00 0.00 45 1010.3
20260503184330 21 287 1.6 3.2 0.00 0.00 0.00 44 1010.2
20260503183829 21 285 1.6 3.2 0.00 0.00 0.00 44 1010.1
20260503182328 21 272 1.6 8.0 0.00 0.00 0.00 44 1010.1
20260503181828 21 342 1.6 6.4 0.00 0.00 0.00 43 1009.8
20260503175327 22 257 1.6 4.8 0.00 0.00 0.00 40 1009.9
20260503174826 23 289 3.2 8.0 0.00 0.00 0.00 40 1010.0
20260503173826 23 277 3.2 14.5 0.00 0.00 0.00 39 1009.9
20260503172825 23 302 3.2 9.7 0.00 0.00 0.00 39 1009.7
20260503172325 23 304 4.8 11.3 0.00 0.00 0.00 39 1009.8
20260503171825 23 207 4.8 8.0 0.00 0.00 0.00 38 1009.8
20260503170324 24 107 4.8 12.9 0.00 0.00 0.00 38 1009.8
20260503150317 26 138 3.2 8.0 0.00 0.00 0.00 27 1009.9
20260503110803 26 232 1.6 4.8 0.00 0.00 0.00 32 1012.1
20260503081253 21 134 4.8 8.0 0.00 0.00 0.00 41 1013.8
20260503080753 21 167 4.8 11.3 0.00 0.00 0.00 41 1013.7
20260503072750 18 132 3.2 9.7 0.00 0.00 0.00 45 1014.0
20260503072250 18 123 3.2 6.4 0.00 0.00 0.00 46 1014.0
20260503071249 17 184 3.2 9.7 0.00 0.00 0.00 46 1014.0
20260503070249 16 88 3.2 9.7 0.00 0.00 0.00 48 1014.0
20260503054744 10 150 0.0 3.2 0.00 0.00 0.00 67 1014.0
20260503054244 10 148 0.0 1.6 0.00 0.00 0.00 67 1014.0
20260503053744 10 148 0.0 1.6 0.00 0.00 0.00 67 1014.1
20260503052743 10 136 0.0 1.6 0.00 0.00 0.00 69 1014.1
20260503052243 10 161 0.0 0.0 0.00 0.00 0.00 69 1014.1
20260503051743 10 161 0.0 1.6 0.00 0.00 0.00 70 1014.1
20260503051242 9 146 0.0 4.8 0.00 0.00 0.00 70 1014.1
20260503050742 9 183 0.0 1.6 0.00 0.00 0.00 70 1014.1
20260503050242 9 200 0.0 3.2 0.00 0.00 0.00 71 1014.1
20260503045741 9 203 0.0 4.8 0.00 0.00 0.00 71 1014.1
20260503044741 8 183 0.0 1.6 0.00 0.00 0.00 71 1014.0
20260503044241 8 192 0.0 1.6 0.00 0.00 0.00 72 1014.1
20260503042740 8 158 0.0 1.6 0.00 0.00 0.00 72 1014.0
20260503042239 8 148 0.0 1.6 0.00 0.00 0.00 72 1014.1
20260503040238 8 146 0.0 1.6 0.00 0.00 0.00 74 1014.1